DECAYED

STARLINK-3667, 51999 (Decayed)

Orbit data source: Space-Track

STARLINK-3667, 51999 was a payload satellite owned by SpaceX/Seattle (US) in LEO that was launched on Wed, 09 Mar 2022 UTC via an FALCON 9 launch vehicle from the Air Force Eastern Test Range (AFETR). Payload-class satellites include a variety of spacecraft equipped with specific instruments for various scientific and technological missions. These include communications satellites like Starlink; space stations such as the ISS; scientific satellites like the Hubble; Earth observation satellites from companies like Planet Labs, Umbra, and HawkEye 360; GPS; miniature CubeSats for education and research; and military/defense satellites.

Not visible in the next 10 days
Identifier
51999, 2022-025AV
Orbit
Decayed
Country
Flag of USUS
Related business
Manufacturer
SpaceX/Seattle
Mission
Decayed Commercial Communications
Bus & Motor
STARLINK, Unknown motor
Mass
297 kg wet, ~275 kg dry
Launch date (UTC)
2022-03-09 (4 years ago)
Launch vehicle
FALCON 9
Launch site
Air Force Eastern Test Range (AFETR)
Object type
Payload
Rocket body
Debris
Shape & HBR
Box + 1 Pan, 10.1 m
Radar Cross Section
13.562 m², Large (>1 m²)

Expand to show TLE details & history
Last TLE update: 8 months ago

TLE from 8 months ago
0 STARLINK-3667
1 51999U 22025AV  25296.33964691  .11471744  12445-4  17158-3 0  9993
2 51999  53.2023 253.4621 0009349 217.8142 142.2255 16.47971860200498
Epoch: 2025-10-23T08:09Z
TLE epoch observation values (Epoch: 2025-10-23T08:09:05.493Z)
Latitude
0.00007°
Longitude
99.18895°
Altitude
150.454 km
Speed
7.814 km/s
True Right ascension
16h 53m 50s
True Declination
0° 00' 00"
Sunlit
Object was in daylight at epoch
Visualization orbit readout
Latitude
Unknown
Longitude
Unknown
Altitude
Unknown
Speed
Unknown
Apparent Right ascension
Unknown
Apparent Declination
Unknown
Sunlit
N/A
Visualization observer readout
Local Sidereal Time
21:31:28
Azimuth
Unknown
Elevation
Unknown
Doppler factor
Unknown
Orbital elements
Apogee altitude
151.042 km
Perigee altitude
138.845 km
Semi-major axis
6,523.081 km
Eccentricity
0.00093
Inclination
53.2023°
RAAN
253.4621°
Arg. of periapsis
217.8142°
True anomaly
142.29106°
Mean anomaly
142.2255°
Eccentric anomaly
142.25829°
Mean motion
4.11969 °/min
Orbital period
87.39 mins
BSTAR
0.00017158
Loading maneuver chart data...
Computing Atmospheric mass density...
Loading historical data...
Loading historical data...
Loading historical data...
Loading historical data...
Loading historical data...
Loading historical data...
Loading historical data...

Documentation

Showing up to 5 results
|